Flag for Martinique Weather past 2 weeks in Fort-de-France, Martinique

Now
81 °F

Partly sunny.


Feels Like: 85 °F
Forecast: 78 / 87 °F
Wind: 12 mph from East

Location: Le Lamentin Airport


UV Index: 10 (Very high)

Visibility: N/A


Pressure: 30.01 "Hg

Humidity: 79%

Dew point: 73 °F

Location of Fort-de-FranceLocation

Historic Weather in Fort-de-France

°F

Fort-de-France temperature yesterday

Maximum temperature yesterday: 88 °F (at 11:30 AM)
Minimum temperature yesterday: 75 °F (at 3:00 AM)
Average temperature yesterday: 81 °F

Past Weeks' High & Low Weather Summary

 TemperatureHumidityPressure
High88 °F (Apr 16, 2:00 PM)100% (Apr 15, 6:00 AM)30.09 "Hg (Apr 15, 6:00 AM)
Low70 °F (Apr 14, 5:30 AM)35% (Apr 11, 11:00 AM)29.86 "Hg (Apr 14, 4:00 PM)
Average79 °F74%29.98 "Hg
* Reported Apr 9 7:00 AM — Apr 24 7:00 AM, Fort-de-France, Weather by CustomWeather, © 2014

Note: Actual official high and low records may vary slightly from our data, if they occured in-between our weather recording intervals... More about our weather records

Advertising

Historic Weather Conditions — Data for Previous 24 hours

 ConditionsComfort  
Time TempWeatherWind HumidityBarometerVisibility
7:00 AM
Apr 24
79 °FBroken clouds.10 mph84%30.01 "HgN/A
6:30 AM79 °FPartly sunny.6 mph79%30.01 "HgN/A
6:00 AM75 °FPartly sunny.2 mph89%29.98 "HgN/A
5:30 AM75 °FClear.3 mph89%29.98 "HgN/A
5:00 AM75 °FPassing clouds.5 mph89%29.98 "HgN/A
4:30 AM75 °FPassing clouds.7 mph89%29.95 "HgN/A
4:00 AM77 °FClear.5 mph83%29.95 "HgN/A
3:30 AM77 °FPassing clouds.2 mph83%29.95 "HgN/A
3:00 AM77 °FPassing clouds.3 mph83%29.95 "HgN/A
2:30 AM77 °FPartly cloudy.6 mph83%29.95 "HgN/A
2:00 AM77 °FPassing clouds.6 mph83%29.95 "HgN/A
1:30 AM77 °FPassing clouds.8 mph83%29.95 "HgN/A
1:00 AM77 °FPassing clouds.8 mph83%29.98 "HgN/A
12:30 AM77 °FPassing clouds.10 mph83%29.98 "HgN/A
12:00 AM77 °FPassing clouds.10 mph83%29.98 "HgN/A
11:30 PM
Apr 23
79 °FPassing clouds.13 mph79%29.98 "HgN/A
11:00 PM79 °FPassing clouds.13 mph84%29.98 "HgN/A
10:30 PM79 °FPassing clouds.13 mph84%29.98 "HgN/A
10:00 PM79 °FPassing clouds.13 mph84%29.98 "HgN/A
9:30 PM79 °FPartly cloudy.13 mph84%29.98 "HgN/A
9:00 PM79 °FPassing clouds.12 mph89%29.95 "HgN/A
8:30 PM79 °FPassing clouds.10 mph84%29.95 "HgN/A
8:00 PM79 °FClear.12 mph84%29.95 "HgN/A
7:30 PM81 °FMostly cloudy.13 mph79%29.95 "HgN/A
7:00 PM81 °FPartly cloudy.12 mph79%29.95 "HgN/A
6:30 PM81 °FPassing clouds.13 mph79%29.92 "HgN/A
6:00 PM82 °FPartly sunny.13 mph74%29.92 "HgN/A
5:30 PM82 °FPartly sunny.14 mph74%29.92 "HgN/A
5:00 PM84 °FBroken clouds.15 mph66%29.92 "HgN/A
4:30 PM84 °FScattered clouds.14 mph66%29.92 "HgN/A
4:00 PM84 °FPartly sunny.13 mph66%29.92 "HgN/A
3:30 PM84 °FScattered clouds.16 mph66%29.92 "HgN/A
3:00 PM84 °FPartly sunny.15 mph66%29.92 "HgN/A
2:30 PM86 °FPartly sunny.14 mph62%29.92 "HgN/A
2:00 PM86 °FPartly sunny.17 mph62%29.95 "HgN/A
1:30 PM88 °FPartly sunny.16 mph62%29.95 "HgN/A
1:00 PM86 °FPartly sunny.14 mph66%29.95 "HgN/A
12:30 PM88 °FBroken clouds.15 mph62%29.98 "HgN/A
12:00 PM88 °FPartly sunny.15 mph62%29.98 "HgN/A
11:30 AM88 °FBroken clouds.15 mph62%29.98 "HgN/A
11:00 AM86 °FPartly sunny.13 mph66%29.98 "HgN/A
10:30 AM86 °FPartly sunny.14 mph62%29.98 "HgN/A
10:00 AM86 °FPartly sunny.15 mph62%30.01 "HgN/A
9:30 AM86 °FBroken clouds.13 mph66%30.01 "HgN/A
9:00 AM84 °FPartly sunny.12 mph70%30.01 "HgN/A
8:30 AM82 °FScattered clouds.10 mph70%30.01 "HgN/A
8:00 AM82 °FBroken clouds.13 mph74%30.01 "HgN/A
Weather by CustomWeather, © 2014

See weather overview